Time,TemperatureF,DewpointF,PressureIn,WindDirection,WindDirectionDegrees,WindSpeedMPH,WindSpeedGustMPH,Humidity,HourlyPrecipIn,Conditions,Clouds,dailyrainin,SoftwareType,DateUTC
2013-04-25 00:23:00,61.0,-99.9,29.88,SW,230,6.0,7.0,-999,-99.99,,,-99.99,,2013-04-25 04:23:00,
2013-04-25 00:33:00,61.0,-99.9,29.88,SW,230,6.0,7.0,-999,-99.99,,,-99.99,,2013-04-25 04:33:00,
2013-04-25 00:43:00,61.0,-99.9,29.88,SW,230,6.0,7.0,-999,-99.99,,,-99.99,,2013-04-25 04:43:00,
2013-04-25 00:52:00,54.0,-99.9,29.96,South,182,-999.0,-999.0,-999,-99.99,,,-99.99,,2013-04-25 04:52:00,
2013-04-25 01:22:00,54.0,-99.9,29.96,South,182,-999.0,-999.0,-999,-99.99,,,-99.99,,2013-04-25 05:22:00,
2013-04-25 01:32:00,54.0,-99.9,29.96,South,182,-999.0,-999.0,-999,-99.99,,,-99.99,,2013-04-25 05:32:00,
2013-04-25 01:42:00,54.0,-99.9,29.96,South,182,-999.0,-999.0,-999,-99.99,,,-99.99,,2013-04-25 05:42:00,
2013-04-25 01:52:00,51.0,-99.9,29.98,SSE,159,-999.0,7.0,-999,-99.99,,,-99.99,,2013-04-25 05:52:00,
2013-04-25 02:22:00,51.0,-99.9,29.98,SSE,159,-999.0,7.0,-999,-99.99,,,-99.99,,2013-04-25 06:22:00,
2013-04-25 02:32:00,51.0,-99.9,29.98,SSE,159,-999.0,7.0,-999,-99.99,,,-99.99,,2013-04-25 06:32:00,
2013-04-25 02:42:00,51.0,-99.9,29.98,SSE,159,-999.0,7.0,-999,-99.99,,,-99.99,,2013-04-25 06:42:00,
2013-04-25 02:52:00,49.0,-99.9,30.02,East,92,-999.0,9.0,-999,-99.99,,,-99.99,,2013-04-25 06:52:00,
2013-04-25 03:32:00,49.0,-99.9,30.02,East,92,-999.0,9.0,-999,-99.99,,,-99.99,,2013-04-25 07:32:00,
2013-04-25 03:42:00,49.0,-99.9,30.02,East,92,-999.0,9.0,-999,-99.99,,,-99.99,,2013-04-25 07:42:00,
2013-04-25 03:52:00,46.0,-99.9,30.06,NE,50,3.0,10.0,-999,-99.99,,,-99.99,,2013-04-25 07:52:00,
2013-04-25 04:22:00,46.0,-99.9,30.06,NE,50,3.0,10.0,-999,-99.99,,,-99.99,,2013-04-25 08:22:00,
2013-04-25 04:32:00,46.0,-99.9,30.06,NE,50,3.0,10.0,-999,-99.99,,,-99.99,,2013-04-25 08:32:00,
2013-04-25 04:42:00,46.0,-99.9,30.06,NE,50,3.0,10.0,-999,-99.99,,,-99.99,,2013-04-25 08:42:00,
2013-04-25 04:52:00,44.0,-99.9,30.11,NNW,336,-999.0,8.0,-999,-99.99,,,-99.99,,2013-04-25 08:52:00,
2013-04-25 05:22:00,44.0,-99.9,30.11,NNW,336,-999.0,8.0,-999,-99.99,,,-99.99,,2013-04-25 09:22:00,
2013-04-25 05:33:00,44.0,-99.9,30.11,NNW,336,-999.0,8.0,-999,-99.99,,,-99.99,,2013-04-25 09:33:00,
2013-04-25 05:42:00,44.0,-99.9,30.11,NNW,336,-999.0,8.0,-999,-99.99,,,-99.99,,2013-04-25 09:42:00,
2013-04-25 05:52:00,40.0,-99.9,30.16,SW,225,6.0,11.0,-999,-99.99,,,-99.99,,2013-04-25 09:52:00,
2013-04-25 06:22:00,40.0,-99.9,30.16,SW,225,6.0,11.0,-999,-99.99,,,-99.99,,2013-04-25 10:22:00,
2013-04-25 06:33:00,40.0,-99.9,30.16,SW,225,6.0,11.0,-999,-99.99,,,-99.99,,2013-04-25 10:33:00,
2013-04-25 06:42:00,40.0,-99.9,30.16,SW,225,6.0,11.0,-999,-99.99,,,-99.99,,2013-04-25 10:42:00,
2013-04-25 06:52:00,42.0,-99.9,30.19,SE,139,5.0,11.0,-999,-99.99,,,-99.99,,2013-04-25 10:52:00,
2013-04-25 07:22:00,42.0,-99.9,30.19,SE,139,5.0,11.0,-999,-99.99,,,-99.99,,2013-04-25 11:22:00,
2013-04-25 07:33:00,42.0,-99.9,30.19,SE,139,5.0,11.0,-999,-99.99,,,-99.99,,2013-04-25 11:33:00,
2013-04-25 07:42:00,42.0,-99.9,30.19,SE,139,5.0,11.0,-999,-99.99,,,-99.99,,2013-04-25 11:42:00,
2013-04-25 07:52:00,46.0,-99.9,30.22,NNE,14,4.0,8.0,-999,-99.99,,,-99.99,,2013-04-25 11:52:00,
2013-04-25 08:22:00,46.0,-99.9,30.22,NNE,14,4.0,8.0,-999,-99.99,,,-99.99,,2013-04-25 12:22:00,
2013-04-25 08:32:00,46.0,-99.9,30.22,NNE,14,4.0,8.0,-999,-99.99,,,-99.99,,2013-04-25 12:32:00,
2013-04-25 08:42:00,46.0,-99.9,30.22,NNE,14,4.0,8.0,-999,-99.99,,,-99.99,,2013-04-25 12:42:00,
2013-04-25 08:52:00,50.0,-99.9,30.23,East,87,-999.0,11.0,-999,-99.99,,,-99.99,,2013-04-25 12:52:00,
2013-04-25 09:21:00,50.0,-99.9,30.23,East,87,-999.0,11.0,-999,-99.99,,,-99.99,,2013-04-25 13:21:00,
2013-04-25 09:32:00,50.0,-99.9,30.23,East,87,-999.0,11.0,-999,-99.99,,,-99.99,,2013-04-25 13:32:00,
2013-04-25 09:42:00,50.0,-99.9,30.23,East,87,-999.0,11.0,-999,-99.99,,,-99.99,,2013-04-25 13:42:00,
2013-04-25 09:52:00,51.0,-99.9,30.22,NNE,33,8.0,12.0,-999,-99.99,,,-99.99,,2013-04-25 13:52:00,
2013-04-25 10:22:00,51.0,-99.9,30.22,NNE,33,8.0,12.0,-999,-99.99,,,-99.99,,2013-04-25 14:22:00,
2013-04-25 10:32:00,51.0,-99.9,30.22,NNE,33,8.0,12.0,-999,-99.99,,,-99.99,,2013-04-25 14:32:00,
2013-04-25 10:42:00,51.0,-99.9,30.22,NNE,33,8.0,12.0,-999,-99.99,,,-99.99,,2013-04-25 14:42:00,
2013-04-25 10:52:00,53.0,-99.9,30.23,ENE,74,3.0,9.0,-999,-99.99,,,-99.99,,2013-04-25 14:52:00,
2013-04-25 11:21:00,53.0,-99.9,30.23,ENE,74,3.0,9.0,-999,-99.99,,,-99.99,,2013-04-25 15:21:00,
2013-04-25 11:33:00,53.0,-99.9,30.23,ENE,74,3.0,9.0,-999,-99.99,,,-99.99,,2013-04-25 15:33:00,
2013-04-25 11:42:00,53.0,-99.9,30.23,ENE,74,3.0,9.0,-999,-99.99,,,-99.99,,2013-04-25 15:42:00,
2013-04-25 11:52:00,57.0,-99.9,30.22,NW,312,-999.0,13.0,-999,-99.99,,,-99.99,,2013-04-25 15:52:00,
2013-04-25 12:24:00,57.0,-99.9,30.22,NW,312,-999.0,13.0,-999,-99.99,,,-99.99,,2013-04-25 16:24:00,
2013-04-25 12:33:00,57.0,-99.9,30.22,NW,312,-999.0,13.0,-999,-99.99,,,-99.99,,2013-04-25 16:33:00,
2013-04-25 12:43:00,57.0,-99.9,30.22,NW,312,-999.0,13.0,-999,-99.99,,,-99.99,,2013-04-25 16:43:00,
2013-04-25 12:52:00,60.0,-99.9,30.21,WNW,298,-999.0,12.0,-999,-99.99,,,-99.99,,2013-04-25 16:52:00,
2013-04-25 13:22:00,60.0,-99.9,30.21,WNW,298,-999.0,12.0,-999,-99.99,,,-99.99,,2013-04-25 17:22:00,
2013-04-25 13:32:00,60.0,-99.9,30.21,WNW,298,-999.0,12.0,-999,-99.99,,,-99.99,,2013-04-25 17:32:00,
2013-04-25 13:42:00,60.0,-99.9,30.21,WNW,298,-999.0,12.0,-999,-99.99,,,-99.99,,2013-04-25 17:42:00,
2013-04-25 14:52:00,62.0,-99.9,30.19,SE,143,6.0,6.0,-999,-99.99,,,-99.99,,2013-04-25 18:52:00,
2013-04-25 15:21:00,62.0,-99.9,30.19,SE,143,6.0,6.0,-999,-99.99,,,-99.99,,2013-04-25 19:21:00,
2013-04-25 15:32:00,62.0,-99.9,30.19,SE,143,6.0,6.0,-999,-99.99,,,-99.99,,2013-04-25 19:32:00,
2013-04-25 15:42:00,62.0,-99.9,30.19,SE,143,6.0,6.0,-999,-99.99,,,-99.99,,2013-04-25 19:42:00,
2013-04-25 15:52:00,63.0,-99.9,30.18,NE,52,-999.0,-999.0,-999,-99.99,,,-99.99,,2013-04-25 19:52:00,
2013-04-25 16:22:00,63.0,-99.9,30.18,NE,52,-999.0,-999.0,-999,-99.99,,,-99.99,,2013-04-25 20:22:00,
2013-04-25 16:32:00,63.0,-99.9,30.18,NE,52,-999.0,-999.0,-999,-99.99,,,-99.99,,2013-04-25 20:32:00,
2013-04-25 16:43:00,63.0,-99.9,30.18,NE,52,-999.0,-999.0,-999,-99.99,,,-99.99,,2013-04-25 20:43:00,
2013-04-25 16:52:00,61.0,-99.9,30.17,SSE,162,-999.0,6.0,-999,-99.99,,,-99.99,,2013-04-25 20:52:00,
2013-04-25 17:33:00,61.0,-99.9,30.17,SSE,162,-999.0,6.0,-999,-99.99,,,-99.99,,2013-04-25 21:33:00,
2013-04-25 17:42:00,61.0,-99.9,30.17,SSE,162,-999.0,6.0,-999,-99.99,,,-99.99,,2013-04-25 21:42:00,
2013-04-25 17:52:00,60.0,-99.9,30.18,SSW,206,-999.0,-999.0,-999,-99.99,,,-99.99,,2013-04-25 21:52:00,
2013-04-25 18:22:00,60.0,-99.9,30.18,SSW,206,-999.0,-999.0,-999,-99.99,,,-99.99,,2013-04-25 22:22:00,
2013-04-25 18:33:00,60.0,-99.9,30.18,SSW,206,-999.0,-999.0,-999,-99.99,,,-99.99,,2013-04-25 22:33:00,
2013-04-25 18:42:00,60.0,-99.9,30.18,SSW,206,-999.0,-999.0,-999,-99.99,,,-99.99,,2013-04-25 22:42:00,
2013-04-25 18:52:00,58.0,-99.9,30.19,West,269,-999.0,-999.0,-999,-99.99,,,-99.99,,2013-04-25 22:52:00,
2013-04-25 19:22:00,58.0,-99.9,30.19,West,269,-999.0,-999.0,-999,-99.99,,,-99.99,,2013-04-25 23:22:00,
2013-04-25 19:32:00,58.0,-99.9,30.19,West,269,-999.0,-999.0,-999,-99.99,,,-99.99,,2013-04-25 23:32:00,
2013-04-25 19:42:00,58.0,-99.9,30.19,West,269,-999.0,-999.0,-999,-99.99,,,-99.99,,2013-04-25 23:42:00,
2013-04-25 19:52:00,52.0,-99.9,30.21,SSW,202,-999.0,-999.0,-999,-99.99,,,-99.99,,2013-04-25 23:52:00,
2013-04-25 20:22:00,52.0,-99.9,30.21,SSW,202,-999.0,-999.0,-999,-99.99,,,-99.99,,2013-04-26 00:22:00,
2013-04-25 20:32:00,52.0,-99.9,30.21,SSW,202,-999.0,-999.0,-999,-99.99,,,-99.99,,2013-04-26 00:32:00,
2013-04-25 20:42:00,52.0,-99.9,30.21,SSW,202,-999.0,-999.0,-999,-99.99,,,-99.99,,2013-04-26 00:42:00,
2013-04-25 21:52:00,45.0,-99.9,30.27,SSW,202,-999.0,-999.0,-999,-99.99,,,-99.99,,2013-04-26 01:52:00,
2013-04-25 22:22:00,45.0,-99.9,30.27,SSW,202,-999.0,-999.0,-999,-99.99,,,-99.99,,2013-04-26 02:22:00,
2013-04-25 22:32:00,45.0,-99.9,30.27,SSW,202,-999.0,-999.0,-999,-99.99,,,-99.99,,2013-04-26 02:32:00,
2013-04-25 22:42:00,45.0,-99.9,30.27,SSW,202,-999.0,-999.0,-999,-99.99,,,-99.99,,2013-04-26 02:42:00,
2013-04-25 22:52:00,42.0,-99.9,30.28,SSW,202,-999.0,-999.0,-999,-99.99,,,-99.99,,2013-04-26 02:52:00,
2013-04-25 23:22:00,42.0,-99.9,30.28,SSW,202,-999.0,-999.0,-999,-99.99,,,-99.99,,2013-04-26 03:22:00,
2013-04-25 23:33:00,42.0,-99.9,30.28,SSW,202,-999.0,-999.0,-999,-99.99,,,-99.99,,2013-04-26 03:33:00,
2013-04-25 23:43:00,42.0,-99.9,30.28,SSW,202,-999.0,-999.0,-999,-99.99,,,-99.99,,2013-04-26 03:43:00,
2013-04-25 23:52:00,40.0,-99.9,30.29,SSW,202,-999.0,-999.0,-999,-99.99,,,-99.99,,2013-04-26 03:52:00,